FW7771 Weather Reports


time (UTC)temp
C
wind
direction
speed
KPH
gust
KPH
rain 1hr
cm
rain 24hr
cm
rain mn
cm
humidity
%
barometer
mb
20260504160106 15 273 40.2 57.9 0.00 0.00 0.00 45 1000.4
20260504120130 13 225 20.9 30.6 0.00 0.00 0.00 55 998.1
20260504081604 11 175 9.7 16.1 0.00 0.00 0.00 57 998.5
20260504050106 10 185 3.2 6.4 0.00 0.00 0.00 55 1002.1
20260504044600 10 185 1.6 6.4 0.00 0.00 0.00 56 1002.3
20260504043113 11 178 1.6 6.4 0.00 0.00 0.00 52 1002.6
20260504041559 12 205 4.8 8.0 0.00 0.00 0.00 48 1002.7
20260504040058 12 204 1.6 9.7 0.00 0.00 0.00 48 1003.0
20260504034600 13 0 3.2 8.0 0.00 0.00 0.00 47 1003.3
20260504033128 12 184 3.2 9.7 0.00 0.00 0.00 49 1003.5
20260504031600 12 207 0.0 6.4 0.00 0.00 0.00 50 1003.6
20260504030115 12 0 0.0 8.0 0.00 0.00 0.00 49 1004.0
20260504024601 13 0 0.0 3.2 0.00 0.00 0.00 49 1004.1
20260504023058 14 0 0.0 3.2 0.00 0.00 0.00 47 1004.2
20260504021600 15 0 1.6 4.8 0.00 0.00 0.00 45 1004.3
20260504020106 15 249 0.0 3.2 0.00 0.00 0.00 40 1004.4
20260504014605 16 0 0.0 0.0 0.00 0.00 0.00 39 1004.5
20260504013059 16 0 0.0 3.2 0.00 0.00 0.00 38 1004.6
20260504011558 17 285 1.6 3.2 0.00 0.00 0.00 36 1004.6
20260504004558 18 270 3.2 11.3 0.00 0.00 0.00 33 1004.8
20260504003104 20 277 9.7 19.3 0.00 0.00 0.00 31 1005.0
20260504001601 20 273 11.3 17.7 0.00 0.00 0.00 29 1005.1
20260504000104 20 260 17.7 27.4 0.00 0.00 0.00 27 1005.3
20260503234559 21 277 19.3 32.2 0.00 0.00 0.00 27 1005.5
20260503233102 21 300 22.5 33.8 0.00 0.00 0.00 30 1005.6
20260503231559 21 259 19.3 32.2 0.00 0.00 0.00 30 1005.8
20260503230113 21 270 22.5 33.8 0.00 0.00 0.00 30 1005.7
20260503224602 21 276 17.7 30.6 0.00 0.00 0.00 31 1005.9
20260503223112 21 279 20.9 32.2 0.00 0.00 0.00 30 1005.9
20260503221559 21 295 16.1 38.6 0.00 0.00 0.00 31 1006.0
20260503220058 21 289 24.1 40.2 0.00 0.00 0.00 30 1006.1
20260503214600 21 291 29.0 45.1 0.00 0.00 0.00 29 1006.1
20260503213100 21 279 27.4 40.2 0.00 0.00 0.00 31 1006.4
20260503211602 21 288 25.7 33.8 0.00 0.00 0.00 30 1006.5
20260503210059 21 302 20.9 53.1 0.00 0.00 0.00 31 1006.6
20260503204600 21 320 20.9 40.2 0.00 0.00 0.00 33 1006.7
20260503203059 21 340 24.1 40.2 0.00 0.00 0.00 33 1007.0
20260503201602 21 317 30.6 41.8 0.00 0.00 0.00 31 1007.2
20260503200100 21 327 27.4 37.0 0.00 0.00 0.00 33 1007.2
20260503194624 20 270 25.7 45.1 0.00 0.00 0.00 36 1007.6
20260503193101 21 321 27.4 43.5 0.00 0.00 0.00 33 1007.5
20260503191613 20 328 33.8 48.3 0.00 0.00 0.00 33 1007.6
20260503190100 20 326 30.6 41.8 0.00 0.00 0.00 35 1007.8
20260503184600 20 288 25.7 43.5 0.00 0.00 0.00 35 1007.8
20260503183106 20 298 32.2 43.5 0.00 0.00 0.00 36 1008.0
20260503181609 20 324 25.7 41.8 0.00 0.00 0.00 38 1008.1
20260503174616 19 299 22.5 46.7 0.00 0.00 0.00 38 1008.4
20260503173110 19 305 25.7 45.1 0.00 0.00 0.00 38 1008.6
20260503171601 19 320 27.4 41.8 0.00 0.00 0.00 38 1008.6
20260503170113 18 311 29.0 43.5 0.00 0.00 0.00 36 1008.8